This is the latest recevied weather packets stored in our database for station/object K5DLF-13. If no packets are shown the sender has not sent any weather packets the latest 10 day(s).
| Time | Temp. | Humidity | Pressure | Rain* | Wind** | Luminosity | Snow |
|---|---|---|---|---|---|---|---|
| 1777911000 | 25.56° C | 70% | 1013.6 hPa | 0 mm | - | 912 W/m² | - |
| 1777910700 | 25.56° C | 69% | 1013.6 hPa | 0 mm | - | 907 W/m² | - |
| 1777910400 | 25.56° C | 68% | 1013.5 hPa | 0 mm | - | 817 W/m² | - |
| 1777910100 | 25.56° C | 69% | 1013.6 hPa | 0 mm | - | 146 W/m² | - |
| 1777909800 | 25.56° C | 68% | 1013.5 hPa | 0 mm | - | 230 W/m² | - |
| 1777909500 | 25.56° C | 69% | 1013.5 hPa | 0 mm | - | 513 W/m² | - |
| 1777909200 | 25.56° C | 69% | 1013.5 hPa | 0 mm | - | 513 W/m² | - |
| 1777908935 | 25.56° C | 68% | 1013.5 hPa | 0 mm | - | 362 W/m² | - |
| 1777908900 | 25.56° C | 68% | 1013.5 hPa | 0 mm | - | 362 W/m² | - |
| 1777908600 | 25.56° C | 71% | 1013.4 hPa | 0 mm | - | 724 W/m² | - |
| 1777908300 | 25° C | 75% | 1013.6 hPa | 0 mm | - | 738 W/m² | - |
| 1777908000 | 25° C | 72% | 1013.4 hPa | 0 mm | - | 754 W/m² | - |
| 1777907700 | 24.44° C | 72% | 1013.4 hPa | 0 mm | - | 738 W/m² | - |
| 1777907400 | 24.44° C | 71% | 1013.4 hPa | 0 mm | - | 148 W/m² | - |
| 1777907100 | 24.44° C | 72% | 1013.5 hPa | 0 mm | - | 197 W/m² | - |
| 1777906800 | 24.44° C | 73% | 1013.7 hPa | 0 mm | - | 715 W/m² | - |
| 1777906500 | 23.89° C | 76% | 1013.8 hPa | 0 mm | - | 656 W/m² | - |
| 1777906200 | 23.33° C | 77% | 1013.7 hPa | 0 mm | - | 568 W/m² | - |
| 1777905900 | 22.78° C | 81% | 1013.6 hPa | 0 mm | - | 396 W/m² | - |
| 1777905600 | 22.22° C | 82% | 1013.7 hPa | 0 mm | - | 134 W/m² | - |
| 1777905300 | 21.67° C | 83% | 1013.6 hPa | 0 mm | - | 102 W/m² | - |
| 1777905000 | 21.11° C | 88% | 1013.6 hPa | 0 mm | - | 90 W/m² | - |
| 1777904700 | 21.11° C | 90% | 1013.6 hPa | 0 mm | - | 322 W/m² | - |
| 1777904400 | 20.56° C | 91% | 1013.5 hPa | 0 mm | - | 153 W/m² | - |
| 1777904100 | 20° C | 94% | 1013.4 hPa | 0 mm | - | 70 W/m² | - |
* Rain latest hour (hover to see other rain measurements)
** Current wind speed in m/s (hover to see current wind gust speed)